#timestamp,LO_Frequency,Hit 
1501099215.7,286047002.2,N
1501099235.5,286047002.4,N
1501099255.3,286047002.6,N
1501099275.2,286046999.8,N
1501099295.0,286046999.7,N
1501099295.9,286046999.7,N
1501099315.7,286047002.7,N
1501099335.6,286047004.0,N
1501099355.4,286047001.3,N
1501099375.2,286047001.6,N
1501099395.1,286047004.1,N
1501099396.0,286047004.1,N
1501099415.8,286047003.0,N
1501099435.6,286047004.4,N
1501099455.5,286047003.1,N
1501099475.3,286047002.0,N
1501099495.1,286047004.2,N
1501099515.9,286047001.5,N
1501099535.7,286047001.7,N
1501099555.5,286047004.4,N
1501099575.3,286047001.9,N
1501099595.2,286047004.3,N
1501099615.0,286047004.2,N
1501099615.9,286047004.2,N
1501099635.7,286047003.9,N
1501099655.6,286047001.5,N
1501099675.4,286047004.2,N
1501099695.2,286047001.6,N
1501099715.1,286047002.5,N
1501099716.0,286047002.5,N
1501099735.8,286047001.5,N
1501099755.6,286047001.3,N
1501099775.5,286047004.0,N
1501099795.3,286047002.5,N
1501099815.1,286047001.4,N
1501099835.9,286047003.5,N
1501099855.7,286047001.3,N
1501099875.5,286047003.0,N
1501099895.3,286047003.0,N
1501099915.2,286047003.7,N
1501099935.0,286047004.0,N
1501099935.9,286047004.0,N
1501099955.7,286047004.4,N
1501099975.6,286047003.8,N
1501099995.4,286047002.9,N
1501100015.2,286047003.7,N
1501100035.1,286047002.9,N
1501100036.0,286047002.9,N
1501100055.8,286047004.1,N
1501100075.6,286047006.0,N
1501100095.5,286047004.2,N
1501100115.3,286047003.6,N
1501100135.1,286047006.0,N
1501100155.8,286047003.3,N
1501100175.7,286047003.1,N
1501100195.5,286047001.4,N
1501100215.3,286047003.5,N
1501100235.2,286047002.9,N
1501100255.9,286047003.4,N
1501100275.7,286047005.9,N
1501100295.6,286047003.1,N
1501100315.4,286047004.8,N
1501100335.2,286047003.5,N
1501100355.1,286047003.0,N
1501100356.0,286047003.0,N
1501100375.8,286047002.9,N
1501100395.6,286047004.1,N
1501100415.4,286047003.1,N
1501100435.3,286047005.8,N
1501100455.1,286047001.3,N
1501100475.8,286047003.8,N
1501100495.7,286047004.2,N
1501100515.5,286047004.1,N
1501100535.3,286047004.1,N
1501100555.2,286047003.1,N
1501100575.9,286047001.8,N
1501100595.7,286047000.4,N
1501100615.5,286047000.5,N
1501100635.4,286047001.6,N
1501100655.2,286047002.6,N
1501100675.0,286047002.1,N
1501100675.9,286047002.1,N
1501100695.8,286047003.8,N
1501100715.6,286047006.0,N
1501100735.4,286047003.1,N
1501100755.3,286047004.1,N
1501100775.1,286047003.5,N
1501100776.0,286047003.5,N
1501100795.8,286047001.6,N
1501100815.7,286047004.3,N
1501100835.5,286046999.7,N
1501100855.3,286047004.1,N
1501100875.1,286047004.2,N
1501100895.9,286047001.3,N
1501100915.7,286047003.2,N
1501100935.5,286047004.2,N
1501100955.4,286047005.9,N
1501100975.2,286047003.3,N
1501100995.0,286047003.7,N
1501100995.9,286047003.7,N
1501101015.8,286047004.2,N
1501101035.6,286047003.6,N
1501101055.4,286047005.8,N
1501101075.3,286047002.9,N
1501101095.1,286047002.9,N
1501101096.0,286047002.9,N
1501101115.8,286047003.7,N
1501101135.7,286047003.2,N
1501101155.5,286047004.6,N
1501101175.3,286047004.9,N
1501101195.1,286047005.6,N
1501101215.9,286047002.9,N
1501101235.7,286047003.1,N
1501101255.5,286047005.1,N
1501101275.4,286047004.8,N
1501101295.2,286047005.6,N
1501101315.0,286047005.8,N
1501101315.9,286047005.8,N
1501101335.8,286047005.3,N
1501101355.6,286047003.1,N
1501101375.4,286047003.2,N
1501101395.3,286047005.5,N
1501101415.1,286047003.4,N
1501101416.0,286047003.4,N
1501101435.8,286047005.7,N
1501101455.6,286047005.9,N
1501101475.5,286047006.0,N
1501101495.3,286047005.1,N
1501101515.1,286047005.6,N
1501101535.9,286047005.5,N
1501101555.7,286047003.4,N
1501101575.5,286047005.5,N
1501101595.4,286047005.2,N
1501101615.2,286047003.3,N
1501101635.0,286047005.6,N
1501101635.9,286047005.6,N
1501101655.8,286047003.4,N
1501101675.6,286047003.0,N
1501101695.4,286047003.5,N
1501101715.2,286047003.6,N
1501101735.1,286047006.0,N
1501101736.0,286047006.0,N
1501101755.8,286047006.0,N
1501101775.6,286047007.4,N
1501101795.5,286047006.9,N
1501101815.3,286047004.6,N
1501101835.1,286047007.5,N
1501101855.9,286047006.7,N
1501101875.7,286047008.9,N
1501101895.5,286047008.8,N
1501101915.4,286047004.8,N
1501101935.2,286047007.3,N
1501101955.0,286047005.1,N
1501101955.9,286047005.1,N
1501101975.7,286047007.1,N
1501101995.6,286047008.7,N
1501102015.4,286047007.0,N
1501102035.2,286047006.7,N
1501102055.1,286047006.4,N
1501102056.0,286047006.4,N
1501102075.8,286047006.6,N
1501102095.6,286047009.0,N
1501102115.5,286047009.2,N
1501102135.3,286047006.1,N
1501102155.1,286047010.4,N
1501102175.9,286047006.1,N
1501102195.7,286047008.9,N
1501102215.5,286047008.0,N
1501102235.3,286047006.1,N
1501102255.2,286047009.0,N
1501102275.0,286047006.7,N
1501102275.9,286047006.7,N
1501102295.7,286047005.0,N
1501102315.6,286047004.2,N
1501102335.4,286046999.8,N
1501102355.2,286047000.4,N
1501102375.1,286047001.4,N
1501102376.0,286047001.4,N
1501102395.8,286047001.7,N
1501102415.6,286047001.8,N
1501102435.5,286047001.9,N
1501102455.3,286047003.3,N
1501102475.1,286047003.7,N
1501102495.9,286047004.3,N
1501102515.7,286047004.3,N
1501102535.5,286047003.8,N
1501102555.3,286047004.0,N
1501102575.2,286047002.0,N
1501102595.0,286047004.0,N
1501102595.9,286047004.0,N
1501102615.7,286047006.0,N
1501102635.6,286047004.0,N
1501102655.4,286047005.9,N
1501102675.2,286047005.7,N
1501102695.1,286047006.0,N
1501102696.0,286047006.0,N
1501102715.8,286047007.4,N
1501102735.6,286047006.8,N
1501102755.5,286047006.7,N
1501102775.3,286047007.1,N
1501102795.1,286047006.7,N
